#timestamp,LO_Frequency,Hit,StdDev 
1604426415.2,286047002.7,N
1604426435.0,286047002.3,N
1604426435.9,286047002.3,N
1604426455.8,286047002.7,N
1604426475.6,286046999.9,N
1604426495.4,286047002.3,N
1604426515.3,286046999.8,N
1604426535.1,286047002.6,N
1604426536.0,286047002.6,N
1604426555.8,286047001.6,N
1604426575.7,286047002.7,N
1604426595.5,286047002.0,N
1604426615.3,286047002.2,N
1604426635.2,286047002.3,N
1604426655.9,286047000.5,N
1604426675.7,286047002.6,N
1604426695.6,286047000.3,N
1604426715.4,286047002.0,N
1604426735.2,286047002.1,N
1604426755.1,286046999.8,N
1604426756.0,286046999.8,N
1604426775.8,286047002.2,N
1604426795.6,286047001.6,N
1604426815.5,286047002.7,N
1604426835.3,286047002.1,N
1604426855.1,286047002.0,N
1604426875.9,286047002.8,N
1604426895.7,286047000.1,N
1604426915.5,286047001.4,N
1604426935.4,286047004.4,Y
1604426955.2,286047000.0,P
1604426975.0,286047002.8,P
1604426975.9,286047002.8,N
1604426995.8,286046999.9,N
1604427015.6,286047000.0,N
1604427035.4,286047002.5,N
1604427055.3,286047002.0,N
1604427075.1,286047001.9,N
1604427076.0,286047001.9,N
1604427095.8,286047002.7,N
1604427115.7,286047002.2,N
1604427135.5,286047002.4,N
1604427155.3,286046999.9,N
1604427175.2,286047000.3,N
1604427195.9,286047001.1,N
1604427215.7,286047001.1,N
1604427235.6,286046998.2,N
1604427255.4,286046998.7,N
1604427275.2,286046998.8,N
1604427295.1,286046998.1,N
1604427296.0,286046998.1,N
1604427315.8,286047000.7,N
1604427335.6,286047000.8,N
1604427355.5,286047001.1,N
1604427375.3,286047001.0,N
1604427395.1,286047000.2,N
1604427415.9,286046999.8,N
1604427435.7,286047000.4,N
1604427455.5,286046999.0,N
1604427475.4,286046997.1,N
1604427495.2,286046994.9,Y
1604427515.0,286046998.0,P
1604427515.9,286046998.0,N
1604427535.8,286046994.9,P
1604427555.6,286046995.8,N
1604427575.4,286046996.4,N
1604427595.3,286046993.4,Y
1604427615.1,286046997.5,P
1604427616.0,286046997.5,P
1604427635.8,286046995.6,P
1604427655.7,286046995.2,Y
1604427675.5,286046999.1,P
1604427695.3,286046998.3,N
1604427715.2,286046998.7,N
1604427735.9,286046999.0,N
1604427755.7,286046998.8,N
1604427775.6,286046996.6,Y
1604427795.4,286046998.6,P
1604427815.2,286046998.4,P
1604427835.1,286046998.8,P
1604427836.0,286046998.8,Y
1604427855.8,286047000.9,P
1604427875.6,286046998.9,N
1604427895.5,286046999.5,N
1604427915.3,286046999.2,N
1604427935.1,286046999.0,N
1604427955.9,286046999.1,N
1604427975.7,286046997.0,Y
1604427995.5,286046996.9,P
1604428015.4,286046996.8,N
1604428035.2,286046997.5,N
1604428055.0,286046995.6,Y
1604428055.9,286046995.6,P
1604428075.8,286046996.9,P
1604428095.6,286046996.6,P
1604428115.4,286046996.8,Y
1604428135.3,286047001.0,P
1604428155.1,286046998.2,N
1604428175.8,286046998.5,N
1604428195.7,286046999.0,N
1604428215.5,286046999.3,N
1604428235.3,286046999.3,N
1604428255.2,286046999.3,N
1604428275.0,286046997.0,N
1604428275.9,286046997.0,N
1604428295.7,286046998.0,N
1604428315.6,286046997.4,N
1604428335.4,286046997.7,N
1604428355.2,286046997.9,N
1604428375.1,286046997.6,N
1604428376.0,286046997.6,N
1604428395.8,286046995.4,Y
1604428415.6,286046997.8,P
1604428435.5,286046997.2,P
1604428455.3,286046997.8,P
1604428475.1,286046997.1,Y
1604428495.9,286047001.1,P
1604428515.7,286047001.0,N
1604428535.5,286047001.2,N
1604428555.4,286047000.5,N
1604428575.2,286046998.2,N
1604428595.0,286046998.3,N
1604428595.9,286046998.3,N
1604428615.8,286046998.5,N
1604428635.6,286046998.8,N
1604428655.4,286046998.7,N
1604428675.3,286046997.1,N
1604428695.1,286046997.5,N
1604428715.8,286046997.8,N
1604428735.7,286046998.0,N
1604428755.5,286046995.0,Y
1604428775.3,286046998.0,P
1604428795.2,286046995.3,P
1604428815.0,286046995.4,P
1604428815.9,286046995.4,N
1604428835.8,286046995.0,Y
1604428855.6,286047000.3,P
1604428875.4,286046998.7,N
1604428895.2,286046998.5,N
1604428915.1,286046998.9,N
1604428916.0,286046998.9,N
1604428935.8,286046998.4,N
1604428955.6,286046998.5,N
1604428975.5,286046998.9,N
1604428995.3,286046999.2,N
1604429015.1,286046999.1,N
1604429035.9,286046999.6,N
1604429055.7,286046996.5,Y
1604429075.5,286046998.4,P
1604429095.4,286046998.6,P
1604429115.2,286046998.4,P
1604429135.1,286046999.1,Y
1604429136.0,286046999.1,P
1604429155.8,286047000.7,N
1604429175.6,286046998.5,N
1604429195.5,286046998.9,N
1604429215.3,286046998.2,N
1604429235.1,286047001.0,N
1604429255.9,286046998.9,N
1604429275.7,286046999.3,N
1604429295.5,286046999.0,N
1604429315.4,286046996.9,Y
1604429335.2,286046999.0,P
1604429355.0,286046996.5,P
1604429355.9,286046996.5,N
1604429375.8,286046999.5,N
1604429395.6,286046999.3,N
1604429415.4,286046999.5,N
1604429435.3,286046996.7,N
1604429455.1,286046997.3,N
1604429456.0,286046997.3,N
1604429475.8,286046996.9,N
1604429495.7,286046997.1,N
1604429515.5,286046997.4,N
1604429535.3,286046995.1,Y
1604429555.2,286046999.5,P
1604429575.9,286046996.8,P
1604429595.7,286046997.0,N
1604429615.6,286046997.2,N
1604429635.4,286046997.4,N
1604429655.2,286046996.6,Y
1604429675.1,286047001.1,P
1604429676.0,286047001.1,N
1604429695.8,286047000.7,N
1604429715.6,286046998.6,N
1604429735.5,286046998.9,N
1604429755.3,286046998.3,N
1604429775.1,286046999.1,N
1604429795.9,286046996.6,N
1604429815.7,286046997.4,N
1604429835.5,286046996.6,N
1604429855.4,286046996.5,N
1604429875.2,286046997.2,N
1604429895.0,286046996.9,N
1604429895.9,286046996.9,N
1604429915.8,286046997.8,N
1604429935.6,286046996.9,N
1604429955.4,286046997.0,N
1604429975.3,286046996.8,N
1604429995.1,286046997.0,N
1604429996.0,286046997.0,N
